This demonstration page uses our WeatherBlox Daily Observations layout. Learn more.

Left ArrowRight Arrow

Hourly Observations for January 16, 2018

Temp ( °F °C ) Dew Point ( °F °C ) Humidity (%) Winds ( mph kmh ) Pressure ( in mb ) Visibility ( mi km ) Precip ( " mm )
12:15 am 00:15 Partly Cloudy 3 -16 N/A 85 85 W 9 15 30.50 1033 10 16 N/A
12:35 am 00:35 Clear 3 -16 N/A 85 85 W 9 15 30.50 1033 10 16 N/A
12:55 am 00:55 Clear 3 -16 N/A 85 85 W 12 19 30.50 1033 10 16 N/A
1:15 am 01:15 Clear 3 -16 N/A 85 85 W 9 15 30.50 1033 10 16 N/A
1:35 am 01:35 Partly Cloudy 1 -17 -2 -19 85 85 W 8 13 30.53 1034 10 16 N/A
1:55 am 01:55 Partly Cloudy 1 -17 -2 -19 85 85 W 9 15 30.53 1034 10 16 N/A
2:15 am 02:15 Clear 1 -17 -2 -19 85 85 W 8 13 30.53 1034 10 16 N/A
2:35 am 02:35 Partly Cloudy N/A -2 -19 92 92 W 8 13 30.53 1034 10 16 N/A
2:55 am 02:55 Partly Cloudy N/A -2 -19 92 92 W 9 15 30.56 1035 7 11 N/A
3:15 am 03:15 Clear N/A -2 -19 92 92 WSW 8 13 30.56 1035 10 16 N/A
3:35 am 03:35 Clear -2 -19 -4 -20 92 92 WSW 9 15 30.56 1035 10 16 N/A
3:55 am 03:55 Clear N/A -2 -19 92 92 WSW 8 13 30.56 1035 10 16 N/A
4:15 am 04:15 Clear N/A -2 -19 92 92 WSW 9 15 30.56 1035 10 16 N/A
4:35 am 04:35 Clear N/A -2 -19 92 92 WSW 9 15 30.56 1035 10 16 N/A
4:55 am 04:55 Clear N/A -2 -19 92 92 WSW 10 17 30.56 1035 10 16 N/A
5:15 am 05:15 Clear N/A -4 -20 84 84 W 10 17 30.56 1035 10 16 N/A
5:35 am 05:35 Clear -2 -19 -4 -20 92 92 WSW 9 15 30.56 1035 10 16 N/A
5:55 am 05:55 Clear -2 -19 -4 -20 92 92 WSW 12 19 30.59 1036 10 16 N/A
6:15 am 06:15 Clear -2 -19 -4 -20 92 92 WSW 12 19 30.59 1036 10 16 N/A
6:35 am 06:35 Clear -2 -19 -6 -21 84 84 W 8 13 30.59 1036 10 16 N/A
6:55 am 06:55 Clear -6 -21 -8 -22 92 92 WSW 8 13 30.59 1036 10 16 N/A
7:15 am 07:15 Clear -4 -20 -6 -21 92 92 SW 8 13 30.59 1036 10 16 N/A
7:35 am 07:35 Clear -4 -20 -6 -21 92 92 SW 7 11 30.59 1036 10 16 N/A
7:55 am 07:55 Clear -4 -20 -6 -21 92 92 SW 7 11 30.62 1037 10 16 N/A
8:15 am 08:15 Sunny -4 -20 -6 -21 92 92 SW 9 15 30.62 1037 7 11 N/A
8:35 am 08:35 Sunny -4 -20 -6 -21 92 92 SW 8 13 30.62 1037 5 8 N/A
8:55 am 08:55 Sunny -2 -19 -6 -21 84 84 SW 8 13 30.62 1037 5 8 N/A
9:15 am 09:15 Sunny -2 -19 -4 -20 92 92 WSW 10 17 30.62 1037 5 8 N/A
9:35 am 09:35 Mostly Cloudy -2 -19 -4 -20 92 92 WSW 10 17 30.62 1037 4 6 N/A
9:55 am 09:55 Mostly Cloudy N/A -4 -20 84 84 WSW 10 17 30.62 1037 5 8 N/A
10:16 am 10:16 Mostly Cloudy N/A -4 -20 84 84 WSW 8 13 30.62 1037 5 8 N/A
10:35 am 10:35 Mostly Cloudy 1 -17 -4 -20 78 78 W 12 19 30.65 1038 5 8 N/A
10:55 am 10:55 Mostly Cloudy 1 -17 -2 -19 85 85 WSW 9 15 30.65 1038 7 11 N/A
11:16 am 11:16 Mostly Cloudy 1 -17 -4 -20 78 78 SW 10 17 30.65 1038 10 16 N/A
11:35 am 11:35 Partly Cloudy 1 -17 -2 -19 85 85 SW 8 13 30.65 1038 5 8 N/A
11:55 am 11:55 Partly Cloudy 3 -16 -2 -19 78 78 SW 10 17 30.59 1036 10 16 N/A
12:15 pm 12:15 Partly Cloudy 3 -16 -2 -19 78 78 SW 10 17 30.59 1036 7 11 N/A
12:35 pm 12:35 Partly Cloudy 3 -16 -2 -19 78 78 SW 12 19 30.59 1036 10 16 N/A
12:55 pm 12:55 Partly Cloudy 5 -15 N/A 78 78 WSW 9 15 30.59 1036 10 16 N/A
1:15 pm 13:15 Cloudy 5 -15 N/A 78 78 WSW 12 19 30.56 1035 10 16 N/A
1:35 pm 13:35 Cloudy 5 -15 N/A 78 78 WSW 12 19 30.56 1035 10 16 N/A
1:55 pm 13:55 Cloudy 5 -15 N/A 78 78 W 9 15 30.59 1036 10 16 N/A
2:15 pm 14:15 Cloudy 5 -15 N/A 78 78 WSW 10 17 30.59 1036 10 16 N/A
2:35 pm 14:35 Cloudy 5 -15 1 -17 85 85 W 12 19 30.59 1036 5 8 N/A
2:55 pm 14:55 Cloudy 5 -15 N/A 78 78 WSW 12 19 30.59 1036 4 6 N/A
3:15 pm 15:15 Cloudy 5 -15 1 -17 85 85 WSW 12 19 30.59 1036 3 5 N/A
3:35 pm 15:35 Cloudy 5 -15 1 -17 85 85 WSW 8 13 30.59 1036 3 5 N/A
3:55 pm 15:55 Cloudy 5 -15 1 -17 85 85 WSW 9 15 30.59 1036 5 8 N/A
4:15 pm 16:15 Cloudy 5 -15 1 -17 85 85 W 10 17 30.59 1036 10 16 N/A
4:35 pm 16:35 Cloudy 5 -15 1 -17 85 85 WSW 9 15 30.59 1036 10 16 N/A
4:55 pm 16:55 Cloudy 7 -14 3 -16 85 85 W 9 15 30.59 1036 7 11 N/A
5:15 pm 17:15 Cloudy 7 -14 3 -16 85 85 WSW 9 15 30.62 1037 7 11 N/A
5:35 pm 17:35 Cloudy 7 -14 3 -16 85 85 W 12 19 30.62 1037 10 16 N/A
5:55 pm 17:55 Cloudy 5 -15 1 -17 85 85 W 10 17 30.62 1037 10 16 N/A
6:15 pm 18:15 Cloudy 5 -15 3 -16 92 92 W 9 15 30.62 1037 4 6 N/A
6:35 pm 18:35 Cloudy 5 -15 3 -16 92 92 W 10 17 30.62 1037 5 8 N/A
6:55 pm 18:55 Cloudy 5 -15 3 -16 92 92 W 12 19 30.62 1037 5 8 N/A
7:15 pm 19:15 Cloudy 5 -15 3 -16 92 92 W 12 19 30.65 1038 7 11 N/A
7:35 pm 19:35 Cloudy 5 -15 3 -16 92 92 WSW 10 17 30.65 1038 7 11 N/A
7:55 pm 19:55 Cloudy 5 -15 3 -16 92 92 W 12 19 30.65 1038 10 16 N/A
8:15 pm 20:15 Cloudy 7 -14 3 -16 85 85 WSW 9 15 30.65 1038 10 16 N/A
8:35 pm 20:35 Cloudy 7 -14 3 -16 85 85 W 12 19 30.65 1038 10 16 N/A
8:55 pm 20:55 Cloudy 7 -14 3 -16 85 85 W 10 17 30.62 1037 10 16 N/A
9:15 pm 21:15 Cloudy 7 -14 3 -16 85 85 W 12 19 30.65 1038 10 16 N/A
9:35 pm 21:35 Cloudy 7 -14 3 -16 85 85 W 10 17 30.65 1038 10 16 N/A
9:55 pm 21:55 Cloudy 7 -14 3 -16 85 85 WSW 10 17 30.65 1038 10 16 N/A
10:15 pm 22:15 Cloudy 7 -14 5 -15 92 92 WSW 8 13 30.65 1038 10 16 N/A
10:35 pm 22:35 Cloudy 7 -14 5 -15 92 92 SW 7 11 30.65 1038 10 16 N/A
10:55 pm 22:55 Cloudy 7 -14 5 -15 92 92 SW 7 11 30.65 1038 7 11 N/A
11:15 pm 23:15 Cloudy 7 -14 5 -15 92 92 SW 7 11 30.65 1038 10 16 N/A
11:35 pm 23:35 Cloudy 7 -14 5 -15 92 92 WSW 5 7 30.65 1038 7 11 N/A
11:55 pm 23:55 Cloudy 7 -14 5 -15 92 92 WSW 7 11 30.65 1038 7 11 N/A

Powered by AerisWeather